STARLINK-3229, 49751

Orbit data source: Space-Track

STARLINK-3229, 49751 is a payload satellite owned by SpaceX/Seattle (US) in LEO that was launched on Thu, 02 Dec 2021 UTC via an FALCON 9 launch vehicle from the Air Force Eastern Test Range (AFETR). Payload-class satellites include a variety of spacecraft equipped with specific instruments for various scientific and technological missions. These include communications satellites like Starlink; space stations such as the ISS; scientific satellites like the Hubble; Earth observation satellites from companies like Planet Labs, Umbra, and HawkEye 360; GPS; miniature CubeSats for education and research; and military/defense satellites.

Loading next visibility...
Identifier
49751, 2021-115AD
Orbit
LEO
Country
Flag of USUS
Related business
Manufacturer
SpaceX/Seattle
Mission
Operational Commercial Communications
Bus & Motor
STARLINK, Unknown motor
Mass
290 kg wet, ~270 kg dry
Launch date (UTC)
2021-12-02 (5 years ago)
Launch vehicle
FALCON 9
Launch site
Air Force Eastern Test Range (AFETR)
Object type
Payload
Rocket body
Debris
Shape & HBR
Box + 1 Pan, 10.1 m
Radar Cross Section
13.562 m², Large (>1 m²)

Expand to show TLE details & history
Last TLE update: 2 days ago

TLE from 2 days ago
0 STARLINK-3229
1 49751U 21115AD  26171.38034687 -.00000552  00000-0 -16603-4 0  9996
2 49751  53.1604  47.9330 0001191  94.1898 265.9230 15.08839219251049
Epoch: 2026-06-20T09:07Z
TLE epoch observation values (Epoch: 2026-06-20T09:07:41.969Z)
Latitude
0.00001°
Longitude
2.41234°
Altitude
540.696 km
Speed
7.593 km/s
True Right ascension
03h 11m 43s
True Declination
0° 00' 00"
Sunlit
Object was in daylight at epoch
Visualization orbit readout
Latitude
Unknown
Longitude
Unknown
Altitude
Unknown
Speed
Unknown
Apparent Right ascension
Unknown
Apparent Declination
Unknown
Sunlit
N/A
Visualization observer readout
Local Sidereal Time
21:23:52
Azimuth
Unknown
Elevation
Unknown
Doppler factor
Unknown
Orbital elements
Apogee altitude
540.824 km
Perigee altitude
539.176 km
Semi-major axis
6,918.137 km
Eccentricity
0.00012
Inclination
53.1604°
RAAN
47.933°
Arg. of periapsis
94.1898°
True anomaly
265.90939°
Mean anomaly
265.923°
Eccentric anomaly
265.91619°
Mean motion
3.77189 °/min
Orbital period
95.44 mins
BSTAR
-0.000016603
Loading maneuver chart data...
Computing Atmospheric mass density...
Loading historical data...
Loading historical data...
Loading historical data...
Loading historical data...
Loading historical data...
Loading historical data...
Loading historical data...

Documentation

Showing up to 5 results
|